Lexington Weather

Lexington, Massachusetts, USA

54°F
12/4/2020 11:50am 
  • Lexington Conditions: Overcast
  • Temperature: 54.1°F / 12.3°CWarmer 2.1°F than last hour.
  • Dew Point: 35.4°FIncreased 3.0°Fsince last hour.
  • Relative Humidity: 49%Increased 2.0% since last hour.
  • Wind: Wind from W W 6 mph, 10-min avg: 6 mph, gust: 12 mph
  • Barometer: 29.93 inFalling 0.03  inHg/hr Falling Slowly
  • Visibility: 10 miles
  • Rain Today: 0.00 in
  •   
Southeast Middlesex County - Winter Storm Watch
 - SEE ALL NEARBY ALERTS -

Regional Weather Roundup
for Boston / Norton, MA

        
000
ASUS41 KBOX 301604
RWRBOX

REGIONAL WEATHER ROUNDUP
NATIONAL WEATHER SERVICE BOSTON/NORTON MA
1100 AM EST MON NOV 30 2020

NOTE:  "FAIR" INDICATES FEW OR NO CLOUDS BELOW 12,000 FEET WITH NO 
SIGNIFICANT WEATHER AND/OR OBSTRUCTIONS TO VISIBILITY.

MAZALL-301700-
EASTERN MASSACHUSETTS
  
CITY           SKY/WX    TMP DP  RH WIND       PRES   REMARKS
BOSTON         CLOUDY    49  47  93 E14       29.97F                  
BEVERLY        LGT RAIN  52  49  89 E10       29.98F                  
LAWRENCE       LGT RAIN  46  42  86 NE6       30.00F                  
BEDFORD        CLOUDY    43  38  82 CALM      29.95F                  
BLUE HILL        N/A     50  47  89 SE17G26   29.93F                  
NORWOOD        CLOUDY    53  47  79 E8        29.94F                  
MARSHFIELD     CLOUDY    54  45  71 SE8       29.97F                  
PLYMOUTH       CLOUDY    55  49  80 E15       29.96F                  
TAUNTON        LGT RAIN  55  49  80 E12       29.93F                  
NEW BEDFORD    LGT RAIN  55  51  86 E14       29.93F                  
$$

MAZALL-301700-
CAPE COD AND THE ISLANDS
  
CITY           SKY/WX    TMP DP  RH WIND       PRES   REMARKS
FALMOUTH       PTSUNNY   54  50  87 SE13G21   29.98F                  
HYANNIS        CLOUDY    55  51  86 E10G21    29.94F                  
CHATHAM        CLOUDY    56  51  84 SE13G22   30.01F                  
PROVINCETOWN   CLOUDY    56  51  84 SE13      30.01F                  
NANTUCKET      CLOUDY    57  53  86 SE22G29   29.98F                  
MARTHAS VNYRD  CLOUDY    57  53  86 SE20G25   29.94F                  
$$
 
MAZALL-301700-
CENTRAL AND WESTERN MASSACHUSETTS
  
CITY           SKY/WX    TMP DP  RH WIND       PRES   REMARKS
WORCESTER      LGT RAIN  41  38  89 VRB7      29.91F FOG              
FITCHBURG      LGT RAIN  41  36  82 N3        29.96F                  
ORANGE         LGT RAIN  38  36  92 CALM      29.90F FOG              
SPRINGFIELD    LGT RAIN  48  46  93 E10       29.84F FOG              
WESTFIELD      LGT RAIN  37  36  96 NE7       29.85F FOG     WCI  32  
NORTH ADAMS    LGT RAIN  45  39  79 E15G24    29.84F                  
PITTSFIELD     RAIN      44  42  93 NE7       29.78F FOG              
$$
 
RIZALL-301700-
RHODE ISLAND
  
CITY           SKY/WX    TMP DP  RH WIND       PRES   REMARKS
PROVIDENCE     LGT RAIN  52  50  93 E7        29.91F FOG              
NEWPORT        HVY RAIN  54  51  90 E10G23    29.89F FOG              
BLOCK ISLAND   LGT RAIN  56  53  90 E21G26    29.87F                  
SMITHFIELD     LGT RAIN  47  47 100 E8        29.90F                  
WESTERLY       CLOUDY    56  52  86 E18G32    29.85F                  
$$
 
CTZALL-301700-
CONNECTICUT
  
CITY           SKY/WX    TMP DP  RH WIND       PRES   REMARKS
BRADLEY INTL   LGT RAIN  40  38  93 N5        29.84F FOG              
HARTFORD       LGT RAIN  44  41  89 N6        29.81F FOG              
BRIDGEPORT     LGT RAIN  55  53  93 E15       29.74F                  
DANBURY        RAIN      52  50  93 E15G21    29.72F FOG              
GROTON         LGT RAIN  57  53  86 E24G35    29.82F                  
NEW HAVEN      LGT RAIN  58  54  86 E16G28    29.76F                  
CHESTER        CLOUDY    55  55 100 SE13G21   29.79F                  
MERIDEN        LGT RAIN  46  43  89 N7        29.79F                  
WILLIMANTIC    LGT RAIN  51  49  92 E9        29.84F FOG              
OXFORD         RAIN      47  47 100 E10       29.77F FOG              
$$

MEZ002-015-021-024-NHZ003-005-008-011-012-014-VTZ005-008-301700-
NORTHERN NEW ENGLAND
  
CITY           SKY/WX    TMP DP  RH WIND       PRES   REMARKS
PORTLAND ME    CLOUDY    38  37  97 CALM      30.07F                  
BANGOR ME      CLOUDY    47  44  90 S5        30.13S                  
CONCORD NH     CLOUDY    35  30  82 CALM      30.00F                  
MANCHESTER NH  CLOUDY    42  33  70 N6        29.97F                  
NASHUA NH      LGT RAIN  38  36  92 NW5       29.97F                  
PORTSMOUTH NH  CLOUDY    42  37  85 NE5       30.01                   
JAFFREY NH     LGT RAIN  38  33  82 NE6       29.93F                  
KEENE NH       MIX PCPN  37  35  92 CALM      29.90F                  
BURLINGTON VT  CLOUDY    46  28  49 E5        29.85F                  
MT. WASHINGTON FOG       27  27 100 S40         N/A  VSB 1/8 WCI   8  
$$

NYZ052-076-301700-
EASTERN NEW YORK
  
CITY           SKY/WX    TMP DP  RH WIND       PRES   REMARKS
ALBANY         LGT RAIN  35  34  96 CALM      29.80F                  
NEW YORK CITY  HVY RAIN  60  54  80 E26G35    29.63F                  
$$
 
ANZALL-301700-
MARINE OBSERVATIONS
  
STATION/POSITION TIME  TEMP    WIND        PRES    VSBY  WAVE
                       AIR SEA DIR/SP/G                  HT/PER
                 (UTC) (F)     (DEG/KT/KT) (MB)    (MI)  (FT/S)
BOSTON BUOY      1540   51 50  120/ 14/ 16 1016.2F
BUZZARDS BAY     1500          110/ 22/ 26 1015.2F
NANTUCKET SOUND  1540      51  110/ 16/ 19   N/A
MASS BAY-STELLWA NOT AVBL
ISLE OF SHOALS   NOT AVBL
S OF BLOCK IS    1526      57                N/A           4/ 4
$$

......................KEY.........................
  SKY/WX - SKY CONDITION/PRESENT WEATHER
  TMP    - TEMPERATURE IN FAHRENHEIT
  DWPT   - DEWPOINT IN FAHRENHEIT
  RH     - RELATIVE HUMIDITY IN PERCENT
  WIND   - DIRECTION AND SPEED IN MPH
  PRES   - MEAN SEA LEVEL PRESSURE IN INCHES OF HG
  WCI    - WIND CHILL INDEX
  VSB    - VISIBILITY IN MILES
  HX     - HEAT INDEX
  TC     - TEMPERATURE IN CELSIUS
  VRB    - VARIABLE WIND DIRECTION
  N/A    - NOT AVAILABLE
  
      

Other recent Regional Weather Roundups

Fri Dec 4, 11:04am

Fri Dec 4, 10:05am

Fri Dec 4, 9:04am

Fri Dec 4, 8:04am

Fri Dec 4, 7:04am

Fri Dec 4, 6:04am

Fri Dec 4, 5:04am

Fri Dec 4, 4:04am

Fri Dec 4, 3:04am

Fri Dec 4, 2:04am

Fri Dec 4, 1:04am

Fri Dec 4, 12:04am

Thu Dec 3, 11:04pm

Thu Dec 3, 10:04pm

Thu Dec 3, 9:04pm

Thu Dec 3, 8:04pm

Thu Dec 3, 7:04pm

Thu Dec 3, 6:04pm

Thu Dec 3, 5:04pm

Thu Dec 3, 4:05pm

Thu Dec 3, 3:04pm

Thu Dec 3, 2:04pm

Thu Dec 3, 1:04pm

Thu Dec 3, 12:04pm

Thu Dec 3, 11:04am

Thu Dec 3, 10:04am

Thu Dec 3, 9:04am

Thu Dec 3, 8:04am

Thu Dec 3, 7:04am

Thu Dec 3, 6:04am

Thu Dec 3, 5:04am

Thu Dec 3, 4:04am

Thu Dec 3, 3:04am

Thu Dec 3, 2:04am

Thu Dec 3, 1:04am

Thu Dec 3, 12:04am

Wed Dec 2, 11:04pm

Wed Dec 2, 10:04pm

Wed Dec 2, 9:04pm

Wed Dec 2, 8:04pm

Wed Dec 2, 7:04pm

Wed Dec 2, 6:05pm

Wed Dec 2, 5:04pm

Wed Dec 2, 4:05pm

Wed Dec 2, 3:05pm

Wed Dec 2, 2:04pm

Wed Dec 2, 1:04pm

Wed Dec 2, 12:04pm

Wed Dec 2, 11:04am

Wed Dec 2, 10:04am

Wed Dec 2, 9:05am

Wed Dec 2, 8:04am

Wed Dec 2, 7:04am

Wed Dec 2, 6:04am

Wed Dec 2, 5:04am

Wed Dec 2, 4:04am

Wed Dec 2, 3:04am

Wed Dec 2, 2:04am

Wed Dec 2, 1:04am

Wed Dec 2, 12:04am

Tue Dec 1, 11:04pm

Tue Dec 1, 10:04pm

Tue Dec 1, 9:04pm

Tue Dec 1, 8:04pm

Tue Dec 1, 7:04pm

Tue Dec 1, 6:05pm

Tue Dec 1, 5:04pm

Tue Dec 1, 4:05pm

Tue Dec 1, 3:04pm

Tue Dec 1, 2:04pm

Tue Dec 1, 12:04pm

Tue Dec 1, 11:04am

Tue Dec 1, 10:04am

Tue Dec 1, 9:04am

Tue Dec 1, 8:04am

Tue Dec 1, 7:04am

Tue Dec 1, 6:04am

Tue Dec 1, 5:05am

Tue Dec 1, 4:04am

Tue Dec 1, 3:04am

Tue Dec 1, 2:04am

Tue Dec 1, 1:04am

Tue Dec 1, 12:04am

Mon Nov 30, 11:04pm

Mon Nov 30, 10:04pm

Mon Nov 30, 9:04pm

Mon Nov 30, 8:04pm

Mon Nov 30, 7:05pm

Mon Nov 30, 6:04pm

Mon Nov 30, 5:05pm

Mon Nov 30, 4:04pm

Mon Nov 30, 3:05pm

Mon Nov 30, 2:05pm

Mon Nov 30, 1:04pm

Mon Nov 30, 12:05pm

Mon Nov 30, 10:04am

Mon Nov 30, 9:04am

Mon Nov 30, 8:04am

Mon Nov 30, 7:05am

Mon Nov 30, 6:04am

Mon Nov 30, 5:05am

Mon Nov 30, 4:04am

Mon Nov 30, 3:04am

Mon Nov 30, 2:04am

Mon Nov 30, 1:04am

Mon Nov 30, 12:04am

Sun Nov 29, 11:04pm

Sun Nov 29, 10:04pm

Sun Nov 29, 9:04pm

Sun Nov 29, 8:04pm

Sun Nov 29, 7:04pm

Sun Nov 29, 6:04pm

Sun Nov 29, 5:04pm

Sun Nov 29, 4:05pm

Sun Nov 29, 3:04pm

Sun Nov 29, 2:04pm

Sun Nov 29, 1:04pm

Sun Nov 29, 12:04pm

Sun Nov 29, 11:04am

Sun Nov 29, 10:04am

Sun Nov 29, 9:04am

Sun Nov 29, 8:05am

Sun Nov 29, 7:04am

Sun Nov 29, 6:04am

Sun Nov 29, 5:04am

Sun Nov 29, 4:04am

Sun Nov 29, 3:04am

Sun Nov 29, 2:05am

Sun Nov 29, 1:04am

Sun Nov 29, 12:04am

Sat Nov 28, 11:04pm

Sat Nov 28, 10:04pm

Sat Nov 28, 9:04pm

Sat Nov 28, 8:04pm

Sat Nov 28, 7:04pm

Sat Nov 28, 6:04pm

Sat Nov 28, 5:04pm

Sat Nov 28, 4:04pm

Sat Nov 28, 3:04pm

Sat Nov 28, 2:04pm

Sat Nov 28, 1:04pm

Sat Nov 28, 12:04pm

Sat Nov 28, 11:04am

Sat Nov 28, 10:04am

Sat Nov 28, 9:04am

Sat Nov 28, 8:04am

Sat Nov 28, 7:04am

Sat Nov 28, 6:04am

Sat Nov 28, 5:04am

Sat Nov 28, 4:04am

Sat Nov 28, 3:05am

Sat Nov 28, 2:04am

Sat Nov 28, 1:04am

Sat Nov 28, 12:04am

Fri Nov 27, 11:05pm

Fri Nov 27, 10:04pm

Fri Nov 27, 9:04pm

Fri Nov 27, 8:04pm

Fri Nov 27, 7:04pm

Fri Nov 27, 6:04pm

Fri Nov 27, 5:04pm

Fri Nov 27, 4:05pm

Fri Nov 27, 3:05pm

Fri Nov 27, 2:05pm

Fri Nov 27, 1:04pm

Fri Nov 27, 12:04pm

Meta data:

ID: 6c3da1f2-cc54-4c33-ae1a-30414c0d0de8
Link: https://api.weather.gov/products/6c3da1f2-cc54-4c33-ae1a-30414c0d0de8